Temperature
17 17 16 16 16 17 17 17 17 16 16 16 16 16 16 16 15 15 15 15 15 15 15 15 15 15 15 15 15 15 15 15 15 15 15 15 15 15
16 16 16 16 16 16 16 16 16 16 16 16 16 16 16 15 15 15 15 15 15 15 15 15 15 15 15 15 15 15 15 15 15 15 15 15 15 15
16 16 16 16 16 16 16 16 16 16 16 15 15 15 15 15 15 15 15 15 15 15 15 15 15 15 15 15 15 15 15 14 14 14 14 14 14 14
16 15 15 15 15 15 15 15 15 15 15 15 15 15 15 15 15 15 15 14 15 15 15 15 15 15 14 14 14 14 14 14 14 14 14 14 14 14
15 15 15 15 15 15 15 15 15 15 15 15 15 15 14 14 14 14 14 14 14 14 14 14 14 14 14 14 14 14 14 14 14 14 14 14 14 14
15 15 15 15 15 15 15 15 15 15 14 14 14 14 14 14 14 14 14 14 14 14 14 14 14 14 14 14 14 14 14 14 14 14 14 14 14 14
15 15 15 15 15 15 14 14 14 14 14 14 14 14 14 14 14 13 13 13 13 13 14 14 14 14 14 14 14 14 14 14 14 14 14 14 14 13
15 15 15 15 15 15 14 14 14 14 14 13 13 13 13 13 13 13 13 13 13 13 13 13 13 13 13 13 13 14 14 14 13 13 13 13 13 13
14 14 14 14 14 14 14 14 14 14 14 13 13 13 13 13 13 13 13 13 13 13 13 13 13 13 13 13 13 13 13 13 13 13 13 13 13 13
14 14 14 14 14 14 13 13 13 13 13 13 13 13 13 13 13 13 12 12 12 12 12 12 13 12 12 13 13 13 13 13 13 13 13 13 13 13
14 14 14 14 14 14 13 13 13 13 13 13 13 13 13 13 12 12 12 12 12 12 12 12 12 12 12 12 12 12 12 12 12 12 12 12 12 12
14 14 14 14 14 13 13 13 13 13 13 13 13 13 13 12 12 12 12 12 11 11 12 12 12 11 12 12 12 12 12 12 12 12 12 12 12 12
14 14 13 13 13 13 13 13 13 12 12 12 12 12 12 12 12 12 12 12 11 11 12 11 11 11 11 11 12 12 12 12 12 12 12 12 12 12
13 13 13 13 13 13 13 13 13 12 12 12 12 12 12 12 12 12 12 12 12 11 11 11 11 11 11 11 11 11 11 11 11 11 11 11 11 11
13 13 13 13 13 13 13 13 12 12 12 12 12 12 12 12 12 12 12 11 11 11 11 11 11 11 11 11 11 11 11 11 11 11 11 11 11 11
12 13 12 12 12 12 12 12 12 12 12 12 12 12 12 11 11 11 11 11 11 11 11 11 11 11 11 11 11 11 11 10 10 10 10 10 10 10
12 12 12 12 12 12 12 12 12 12 12 12 12 11 11 11 11 11 11 11 11 11 11 11 11 11 11 11 10 11 10 10 10 10 10 10 10 10
12 12 12 12 11 11 12 11 12 11 11 11 11 11 11 11 11 11 11 11 11 11 11 11 11 11 11 11 11 10 10 10 10 10 10 10 10 10
12 11 11 11 11 11 11 11 11 11 11 11 11 11 11 11 11 11 11 11 11 11 11 11 11 10 10 10 10 10 10 10 10 10 10 9 9 9
11 11 11 11 11 11 11 11 11 11 11 11 11 11 11 11 11 11 11 11 11 11 11 11 11 10 10 10 10 10 10 10 10 9 9 9 9 9
11 11 11 11 11 11 11 11 11 11 11 11 11 11 11 11 11 11 11 11 11 11 10 11 10 10 10 10 10 10 10 10 10 9 9 9 9 9
11 11 11 11 11 11 11 11 11 11 11 11 11 10 10 10 10 10 10 10 10 11 10 10 10 10 10 10 10 10 10 10 9 9 9 9 9 9
11 11 11 11 11 11 11 11 11 11 11 11 10 10 10 10 10 10 10 10 10 10 10 10 10 10 10 10 10 10 10 10 9 9 9 9 9 9
Wind_Speed
2 2 1 2 1 1 1 1 0 1 1 1 1 1 1 3 4 4 4 7 8 8 8 7 6 7 7 6 6 6 6 6 7 7 7 7 7 6
1 1 1 2 2 1 1 1 1 0 1 1 0 1 0 1 2 2 3 6 8 9 9 8 8 8 7 7 7 6 6 7 7 7 7 7 7 6
2 1 1 1 2 2 2 2 1 0 1 1 1 0 0 0 1 2 4 6 7 9 9 10 10 9 9 8 7 7 7 7 7 7 7 7 7 7
1 1 1 1 1 2 2 2 1 1 1 2 1 0 1 1 1 3 2 3 5 8 10 11 11 11 10 9 9 8 8 8 8 8 8 7 8 8
1 0 1 1 1 1 2 2 2 2 1 2 2 1 1 1 1 2 2 2 3 4 8 9 11 12 12 11 10 9 8 8 8 8 9 8 8 8
1 0 1 0 1 1 1 1 2 2 2 2 2 1 1 1 1 2 2 2 2 3 2 5 8 9 10 10 10 9 9 8 8 8 9 9 9 9
1 1 1 1 0 1 1 1 1 2 2 2 2 2 1 1 2 2 3 3 2 2 1 3 4 4 6 7 8 9 8 8 8 8 9 9 9 9
2 2 2 3 2 1 2 1 1 1 2 2 2 2 2 2 2 3 2 3 3 2 1 3 2 2 4 5 8 9 9 8 8 9 9 10 10 10
3 3 4 3 2 2 3 3 4 4 5 4 3 4 3 2 2 3 3 4 4 3 2 4 2 2 2 5 8 10 10 10 9 9 8 9 10 10
4 4 3 2 2 1 3 3 4 4 4 4 3 4 4 3 3 4 5 4 4 3 2 3 3 2 3 4 9 10 11 11 11 10 10 9 9 10
4 4 3 2 2 2 3 4 3 3 4 4 5 5 6 6 5 3 4 3 4 3 2 2 3 3 3 3 6 10 11 11 11 11 11 10 10 9
3 3 3 3 3 3 3 3 4 4 3 3 4 6 6 7 7 5 4 3 3 3 2 2 2 2 3 2 2 4 7 9 11 11 11 10 9 6
3 2 2 4 4 4 4 4 5 5 4 4 4 4 4 4 4 4 3 3 3 3 2 1 2 2 3 3 2 2 3 3 5 6 9 10 10 7
3 2 2 5 5 6 6 6 7 6 4 5 4 3 3 3 2 2 3 3 4 5 4 2 2 3 3 4 3 2 2 2 2 2 3 5 7 8
3 3 4 6 6 6 8 9 6 5 5 5 4 3 3 2 2 2 3 4 5 6 6 4 4 3 3 4 3 2 2 1 1 1 1 2 2 2
3 3 4 6 7 6 5 5 5 5 4 4 4 3 2 2 2 3 3 3 4 4 5 6 5 4 4 4 3 3 2 2 2 2 1 1 1 2
3 3 3 3 4 4 4 3 3 3 4 4 3 3 3 3 3 3 3 4 4 4 3 4 4 4 4 3 3 3 2 2 1 1 1 1 1 1
3 5 5 5 5 4 4 4 4 4 4 4 4 4 3 4 4 4 3 4 4 4 3 2 2 2 2 2 3 3 2 2 1 1 1 1 1 1
5 6 6 5 5 5 5 4 4 4 4 4 4 4 4 4 4 4 3 4 4 4 3 3 2 2 4 4 3 3 2 2 1 1 2 1 2 2
6 6 6 5 5 5 4 4 4 3 3 3 4 4 4 4 4 4 3 4 4 4 3 3 3 3 4 4 2 3 4 3 2 2 2 1 0 1
6 5 5 4 4 4 3 4 3 4 4 4 4 4 4 3 4 4 4 5 5 4 4 4 4 5 3 2 2 2 2 3 3 3 3 2 2 2
6 6 5 5 4 4 3 3 4 4 4 4 4 4 4 4 5 5 4 4 4 4 4 3 3 3 3 4 4 3 3 3 3 4 4 4 3 3
5 5 5 5 5 4 4 4 5 5 5 4 4 4 4 4 4 4 4 3 3 3 3 2 2 2 3 3 3 3 3 4 3 2 2 4 6 7
Wind_Direction
329 326 330 323 333 345 358 32 244 268 273 198 154 134 131 139 154 174 172 185 194 199 205 212 216 219 221 221 227 233 236 236 234 233 232 229 229 233
310 340 337 339 338 341 357 5 23 244 276 303 298 144 124 174 162 163 185 189 203 206 208 209 211 213 214 217 221 226 230 235 235 232 229 227 228 231
326 331 328 345 348 352 352 0 4 27 270 302 356 85 156 284 195 204 204 190 195 206 209 210 212 212 214 215 217 222 229 230 232 235 232 226 226 230
305 331 317 312 342 333 338 336 326 309 249 277 304 289 264 211 213 246 240 219 198 211 213 215 213 211 213 215 218 221 225 229 228 228 232 227 229 232
282 303 290 296 283 304 302 312 312 312 279 255 271 267 256 276 265 272 274 257 250 224 211 213 213 213 214 217 220 221 223 227 229 228 232 230 228 232
312 297 298 300 275 271 275 307 311 310 295 283 271 272 281 316 289 274 277 268 269 265 229 222 215 216 218 221 222 223 223 225 229 230 232 231 229 232
278 273 260 207 334 293 292 305 299 298 301 295 280 278 297 316 287 280 280 282 259 257 256 239 201 206 215 218 218 220 220 220 223 227 230 230 228 230
251 253 240 222 195 212 240 257 268 258 281 289 289 281 277 271 283 283 290 301 287 263 259 270 228 225 199 204 206 207 210 215 220 223 224 226 229 230
241 243 256 243 194 226 237 239 252 253 248 254 263 274 277 270 273 286 283 281 277 275 270 271 268 260 231 214 204 200 204 212 217 220 224 227 229 231
237 241 244 229 252 272 262 258 248 252 257 253 257 269 274 274 257 257 271 269 263 264 251 263 272 266 259 204 209 207 209 212 216 220 227 231 231 232
232 231 216 215 225 269 267 268 269 268 267 254 249 254 259 261 258 263 270 274 280 277 265 259 272 278 260 232 218 218 216 217 220 223 228 236 240 239
230 208 197 197 207 244 263 269 269 273 281 266 253 256 253 251 245 236 251 267 282 287 277 256 277 297 283 258 230 214 222 228 227 230 234 236 236 234
250 214 200 190 208 242 258 262 262 275 274 263 254 245 240 237 231 229 228 238 255 268 276 267 278 281 275 290 291 247 219 221 216 229 235 234 230 219
261 248 211 203 224 246 254 254 260 270 265 262 255 250 246 241 235 233 228 233 236 245 259 265 268 269 274 283 285 274 262 225 207 223 212 228 230 230
286 271 247 232 243 253 245 246 249 251 254 258 256 254 252 248 239 242 249 242 244 254 246 235 243 258 261 270 275 272 277 274 238 258 237 223 220 217
264 277 248 241 251 255 251 244 243 248 250 256 263 258 248 245 249 254 253 247 246 251 238 226 228 234 254 269 277 273 259 247 248 255 242 228 217 189
259 256 249 254 250 244 244 244 244 250 253 255 257 259 257 256 256 251 249 256 254 251 246 233 226 222 228 242 261 271 261 253 242 242 251 243 229 193
236 252 252 247 250 251 245 245 240 239 243 248 250 251 252 254 258 256 254 250 249 250 246 236 217 230 251 263 253 256 255 247 247 235 240 251 252 220
231 249 250 248 249 253 249 246 245 239 234 241 246 247 248 255 260 256 254 250 250 252 247 231 212 218 250 257 247 250 250 247 242 244 246 253 231 210
243 249 249 249 246 248 250 245 245 243 238 241 249 250 248 253 257 260 257 255 253 251 250 238 219 218 236 250 253 253 236 229 225 235 253 277 232 171
249 252 252 252 252 254 258 251 244 247 249 248 249 246 249 258 261 259 258 254 252 246 244 240 227 221 224 220 242 240 228 221 207 209 229 243 243 222
245 247 249 252 250 251 256 254 249 243 241 244 251 252 251 257 263 264 262 258 251 251 253 237 215 216 215 222 238 234 216 206 214 215 217 222 216 215
245 249 250 246 239 236 242 253 255 250 242 241 241 239 248 260 265 267 265 258 258 259 260 241 229 226 224 218 229 235 225 214 207 217 249 233 216 222
Height
1525 1525 1525 1525 1526 1526 1526 1526 1526 1526 1526 1526 1526 1525 1525 1525 1525 1525 1524 1524 1524 1524 1524 1524 1524 1525 1525 1525 1526 1526 1527 1528 1529 1529 1530 1531 1532 1532
1523 1524 1524 1524 1524 1524 1524 1524 1524 1524 1524 1524 1524 1524 1524 1523 1523 1522 1522 1522 1522 1522 1522 1522 1521 1521 1522 1522 1523 1523 1523 1524 1525 1526 1526 1527 1528 1529
1522 1522 1522 1522 1522 1522 1522 1522 1522 1523 1522 1522 1522 1522 1522 1521 1520 1520 1520 1520 1519 1519 1519 1519 1519 1519 1519 1519 1519 1520 1520 1521 1521 1522 1522 1523 1524 1525
1520 1520 1520 1520 1520 1520 1520 1520 1521 1521 1521 1520 1520 1520 1519 1519 1518 1518 1518 1517 1517 1517 1516 1516 1516 1516 1516 1516 1516 1516 1516 1517 1517 1518 1519 1519 1520 1521
1518 1518 1518 1518 1518 1518 1518 1518 1518 1519 1519 1519 1518 1518 1517 1517 1516 1516 1516 1515 1515 1514 1514 1513 1513 1513 1513 1513 1513 1513 1513 1513 1513 1514 1515 1515 1516 1517
1516 1516 1516 1516 1516 1516 1516 1516 1516 1516 1516 1516 1516 1516 1515 1514 1514 1513 1513 1512 1512 1512 1511 1510 1510 1510 1510 1510 1510 1510 1509 1509 1510 1510 1511 1511 1512 1512
1514 1514 1514 1514 1514 1514 1514 1513 1513 1513 1513 1513 1513 1513 1512 1511 1511 1510 1510 1509 1509 1509 1508 1507 1507 1506 1506 1506 1506 1506 1506 1506 1506 1506 1506 1507 1507 1508
1512 1512 1512 1512 1512 1511 1511 1511 1511 1511 1510 1510 1510 1509 1509 1508 1508 1508 1507 1507 1506 1506 1505 1504 1504 1504 1503 1503 1502 1502 1502 1502 1502 1502 1502 1502 1503 1503
1510 1510 1510 1509 1509 1509 1508 1508 1508 1507 1508 1507 1506 1506 1505 1505 1505 1504 1504 1504 1503 1503 1503 1501 1501 1500 1500 1500 1499 1499 1499 1499 1498 1498 1498 1498 1498 1499
1507 1507 1507 1507 1507 1506 1506 1505 1504 1504 1504 1504 1503 1503 1502 1502 1501 1501 1501 1500 1500 1500 1500 1498 1497 1497 1496 1496 1496 1496 1495 1495 1495 1494 1494 1494 1494 1494
1504 1504 1504 1504 1504 1503 1503 1502 1501 1501 1501 1500 1500 1499 1499 1498 1498 1498 1497 1497 1496 1496 1496 1495 1494 1493 1493 1493 1493 1493 1492 1492 1491 1491 1490 1490 1490 1491
1500 1500 1501 1500 1500 1500 1500 1499 1498 1498 1497 1497 1496 1496 1495 1495 1495 1494 1494 1493 1493 1493 1492 1492 1491 1491 1490 1490 1489 1489 1489 1488 1488 1487 1487 1487 1487 1486
1498 1497 1497 1497 1497 1497 1496 1496 1495 1495 1494 1494 1493 1492 1492 1491 1491 1490 1490 1490 1490 1489 1490 1490 1489 1488 1488 1487 1486 1486 1486 1485 1484 1484 1484 1483 1483 1483
1494 1494 1494 1494 1493 1493 1492 1492 1492 1492 1491 1490 1490 1489 1489 1488 1487 1487 1487 1486 1486 1486 1486 1487 1486 1486 1485 1484 1483 1483 1482 1482 1481 1481 1480 1480 1479 1479
1491 1491 1490 1490 1489 1489 1488 1488 1488 1488 1487 1487 1486 1486 1485 1485 1484 1484 1483 1483 1483 1483 1483 1483 1483 1483 1482 1481 1481 1480 1479 1479 1478 1478 1477 1476 1476 1476
1487 1486 1486 1486 1485 1485 1485 1484 1484 1484 1484 1483 1483 1482 1482 1481 1481 1481 1480 1480 1479 1479 1479 1479 1479 1479 1478 1478 1478 1477 1476 1476 1475 1475 1474 1473 1473 1472
1483 1482 1482 1481 1481 1481 1481 1481 1480 1480 1480 1479 1479 1479 1478 1478 1477 1477 1477 1476 1476 1475 1475 1475 1475 1475 1475 1475 1475 1474 1473 1473 1472 1471 1471 1470 1470 1470
1478 1477 1477 1477 1477 1477 1477 1476 1476 1476 1475 1475 1475 1475 1475 1475 1474 1474 1473 1473 1472 1471 1472 1472 1472 1472 1472 1471 1472 1470 1470 1469 1469 1468 1468 1467 1467 1467
1474 1473 1473 1473 1473 1473 1473 1472 1472 1472 1472 1471 1471 1471 1471 1471 1470 1470 1469 1469 1469 1468 1468 1468 1468 1468 1468 1467 1467 1468 1467 1466 1466 1465 1465 1465 1464 1464
1469 1469 1469 1469 1469 1469 1468 1468 1468 1467 1467 1467 1467 1467 1467 1467 1466 1466 1465 1465 1465 1465 1465 1465 1464 1464 1464 1464 1464 1463 1464 1463 1463 1462 1462 1462 1462 1462
1465 1464 1464 1464 1464 1464 1464 1464 1464 1463 1463 1463 1463 1463 1463 1462 1462 1462 1461 1461 1461 1461 1460 1460 1460 1461 1461 1461 1461 1460 1460 1460 1460 1460 1460 1460 1459 1459
1460 1460 1460 1460 1460 1460 1460 1460 1459 1459 1459 1459 1458 1458 1459 1458 1458 1458 1457 1457 1457 1456 1456 1456 1457 1457 1457 1457 1457 1457 1457 1457 1457 1457 1457 1457 1456 1455
1456 1455 1455 1455 1455 1455 1455 1455 1454 1454 1454 1454 1454 1454 1454 1454 1454 1454 1454 1453 1453 1453 1453 1452 1453 1453 1453 1453 1454 1454 1454 1454 1454 1454 1454 1454 1454 1454